QPF
0.00 0.00 0.00 0.00 0.00 0.00 0.01 0.00 0.00 0.00 0.00 0.00 0.00 0.00 0.00 0.00 0.00 0.00 0.00 0.00 0.00 0.00 0.00 0.00 0.00 0.00 0.00 0.00 0.00 0.00 0.00 0.00 0.00 0.00 0.00 0.00 0.00 0.00 0.00 0.00 0.00 0.00 0.00 0.00 0.00 0.00 0.00 0.00 0.00 0.00 0.00 0.00 0.00 0.00
0.00 0.00 0.00 0.00 0.00 0.00 0.00 0.00 0.00 0.00 0.00 0.00 0.00 0.00 0.00 0.00 0.00 0.00 0.00 0.00 0.00 0.00 0.00 0.00 0.00 0.00 0.00 0.00 0.00 0.00 0.00 0.00 0.00 0.00 0.00 0.00 0.00 0.00 0.00 0.00 0.00 0.00 0.00 0.00 0.00 0.00 0.00 0.00 0.00 0.00 0.00 0.00 0.00 0.00
0.00 0.00 0.00 0.00 0.00 0.00 0.00 0.00 0.00 0.00 0.00 0.00 0.00 0.00 0.00 0.00 0.00 0.00 0.00 0.00 0.00 0.00 0.00 0.00 0.00 0.00 0.00 0.00 0.00 0.00 0.00 0.00 0.00 0.00 0.00 0.00 0.00 0.00 0.00 0.00 0.00 0.00 0.00 0.00 0.00 0.00 0.00 0.00 0.00 0.00 0.00 0.00 0.00 0.00
0.00 0.00 0.00 0.00 0.00 0.00 0.00 0.00 0.00 0.00 0.00 0.00 0.00 0.00 0.00 0.00 0.00 0.00 0.00 0.00 0.00 0.00 0.00 0.00 0.00 0.00 0.00 0.00 0.00 0.00 0.00 0.00 0.00 0.00 0.00 0.00 0.00 0.00 0.00 0.00 0.00 0.00 0.00 0.00 0.00 0.00 0.00 0.00 0.00 0.00 0.00 0.00 0.00 0.00
0.00 0.00 0.00 0.00 0.00 0.00 0.00 0.00 0.00 0.00 0.00 0.01 0.01 0.00 0.00 0.00 0.00 0.00 0.00 0.00 0.00 0.00 0.00 0.00 0.00 0.00 0.00 0.00 0.00 0.00 0.00 0.00 0.00 0.00 0.00 0.00 0.00 0.00 0.00 0.00 0.00 0.00 0.00 0.00 0.00 0.00 0.00 0.00 0.00 0.00 0.00 0.00 0.00 0.00
0.00 0.00 0.00 0.00 0.00 0.00 0.00 0.00 0.00 0.00 0.00 0.00 0.00 0.01 0.01 0.00 0.00 0.00 0.00 0.00 0.00 0.00 0.00 0.00 0.00 0.00 0.00 0.00 0.00 0.00 0.00 0.00 0.00 0.00 0.00 0.00 0.00 0.00 0.00 0.00 0.00 0.00 0.00 0.00 0.00 0.00 0.00 0.00 0.00 0.00 0.00 0.00 0.00 0.00
0.00 0.00 0.00 0.00 0.00 0.00 0.00 0.00 0.00 0.00 0.00 0.00 0.00 0.01 0.01 0.00 0.00 0.00 0.00 0.00 0.00 0.00 0.00 0.00 0.00 0.00 0.00 0.00 0.00 0.00 0.00 0.00 0.00 0.00 0.00 0.00 0.00 0.00 0.00 0.00 0.00 0.00 0.00 0.00 0.00 0.00 0.00 0.00 0.00 0.00 0.00 0.00 0.00 0.00
0.00 0.00 0.00 0.00 0.00 0.00 0.00 0.00 0.00 0.00 0.00 0.00 0.00 0.00 0.02 0.03 0.02 0.00 0.00 0.00 0.00 0.00 0.00 0.00 0.00 0.00 0.00 0.00 0.00 0.00 0.00 0.00 0.00 0.00 0.00 0.00 0.00 0.00 0.00 0.00 0.00 0.00 0.00 0.00 0.00 0.00 0.00 0.00 0.00 0.00 0.00 0.00 0.00 0.00
0.00 0.00 0.00 0.00 0.00 0.00 0.00 0.00 0.00 0.00 0.00 0.00 0.00 0.00 0.02 0.05 0.05 0.02 0.00 0.00 0.00 0.00 0.00 0.00 0.00 0.00 0.00 0.00 0.00 0.00 0.00 0.00 0.00 0.00 0.00 0.00 0.00 0.00 0.00 0.00 0.00 0.00 0.00 0.00 0.00 0.00 0.00 0.00 0.00 0.00 0.00 0.00 0.00 0.00
0.00 0.00 0.00 0.00 0.00 0.00 0.00 0.00 0.00 0.00 0.01 0.00 0.00 0.00 0.01 0.01 0.01 0.01 0.02 0.03 0.03 0.02 0.01 0.00 0.00 0.00 0.00 0.00 0.00 0.00 0.00 0.00 0.00 0.00 0.00 0.00 0.00 0.00 0.00 0.00 0.00 0.00 0.00 0.00 0.00 0.00 0.00 0.00 0.00 0.00 0.00 0.00 0.00 0.00
0.00 0.00 0.00 0.00 0.00 0.00 0.00 0.00 0.00 0.00 0.00 0.00 0.00 0.00 0.00 0.03 0.02 0.03 0.04 0.05 0.04 0.03 0.04 0.01 0.00 0.00 0.00 0.00 0.00 0.00 0.01 0.01 0.01 0.00 0.00 0.00 0.00 0.00 0.00 0.00 0.00 0.00 0.00 0.00 0.00 0.00 0.00 0.00 0.00 0.00 0.00 0.00 0.00 0.00
0.01 0.00 0.01 0.00 0.00 0.01 0.00 0.00 0.01 0.01 0.00 0.00 0.00 0.00 0.01 0.03 0.06 0.06 0.04 0.03 0.02 0.01 0.00 0.00 0.00 0.00 0.00 0.00 0.00 0.02 0.04 0.04 0.01 0.00 0.00 0.00 0.00 0.00 0.00 0.00 0.00 0.00 0.00 0.00 0.00 0.00 0.00 0.00 0.00 0.00 0.00 0.00 0.00 0.00
0.01 0.01 0.01 0.01 0.01 0.01 0.01 0.00 0.04 0.02 0.00 0.02 0.02 0.00 0.01 0.06 0.05 0.05 0.02 0.01 0.00 0.00 0.00 0.00 0.00 0.00 0.00 0.00 0.02 0.06 0.06 0.03 0.00 0.00 0.00 0.00 0.00 0.00 0.00 0.00 0.00 0.00 0.00 0.00 0.00 0.00 0.00 0.00 0.00 0.00 0.00 0.00 0.00 0.00
0.01 0.01 0.01 0.01 0.01 0.02 0.02 0.01 0.06 0.05 0.03 0.04 0.05 0.03 0.00 0.00 0.00 0.00 0.00 0.00 0.00 0.00 0.00 0.00 0.00 0.01 0.01 0.04 0.05 0.08 0.05 0.03 0.01 0.00 0.00 0.00 0.00 0.00 0.00 0.00 0.00 0.00 0.00 0.00 0.00 0.00 0.00 0.00 0.00 0.00 0.00 0.00 0.00 0.00
0.00 0.00 0.01 0.01 0.01 0.02 0.02 0.02 0.07 0.07 0.13 0.11 0.06 0.01 0.00 0.00 0.00 0.00 0.00 0.00 0.00 0.00 0.00 0.00 0.04 0.06 0.10 0.13 0.10 0.06 0.07 0.02 0.00 0.00 0.00 0.00 0.00 0.00 0.00 0.00 0.00 0.00 0.00 0.00 0.00 0.00 0.00 0.00 0.00 0.00 0.00 0.00 0.00 0.00
0.00 0.01 0.01 0.01 0.01 0.01 0.02 0.06 0.08 0.13 0.37 0.23 0.08 0.00 0.00 0.00 0.00 0.00 0.00 0.00 0.00 0.00 0.00 0.00 0.04 0.09 0.08 0.05 0.03 0.01 0.00 0.00 0.00 0.00 0.00 0.00 0.00 0.00 0.00 0.00 0.00 0.00 0.00 0.00 0.00 0.00 0.00 0.00 0.00 0.00 0.00 0.00 0.00 0.00
0.01 0.02 0.00 0.00 0.01 0.02 0.06 0.09 0.12 0.27 0.36 0.26 0.05 0.00 0.00 0.00 0.00 0.00 0.00 0.00 0.00 0.00 0.04 0.10 0.20 0.17 0.16 0.19 0.11 0.02 0.00 0.00 0.00 0.01 0.00 0.01 0.00 0.00 0.00 0.00 0.00 0.00 0.00 0.00 0.00 0.00 0.00 0.00 0.00 0.00 0.00 0.00 0.00 0.00
0.02 0.00 0.02 0.03 0.03 0.04 0.07 0.10 0.26 0.31 0.20 0.06 0.00 0.00 0.00 0.00 0.00 0.00 0.00 0.00 0.00 0.00 0.00 0.01 0.02 0.02 0.04 0.05 0.03 0.00 0.00 0.00 0.00 0.01 0.01 0.01 0.01 0.00 0.00 0.00 0.00 0.00 0.00 0.00 0.00 0.00 0.00 0.00 0.00 0.00 0.00 0.00 0.00 0.00
0.00 0.01 0.02 0.04 0.05 0.10 0.16 0.14 0.14 0.18 0.07 0.00 0.00 0.00 0.00 0.00 0.00 0.00 0.00 0.00 0.00 0.01 0.01 0.04 0.09 0.04 0.00 0.00 0.00 0.00 0.00 0.00 0.01 0.01 0.01 0.00 0.00 0.00 0.00 0.00 0.00 0.00 0.00 0.00 0.00 0.00 0.00 0.00 0.00 0.00 0.00 0.00 0.00 0.00
0.02 0.03 0.04 0.05 0.09 0.28 0.33 0.22 0.13 0.04 0.01 0.00 0.00 0.00 0.00 0.00 0.00 0.00 0.00 0.00 0.00 0.01 0.06 0.05 0.01 0.00 0.00 0.00 0.00 0.00 0.00 0.01 0.02 0.01 0.00 0.00 0.00 0.00 0.00 0.00 0.00 0.00 0.00 0.00 0.00 0.00 0.00 0.00 0.00 0.00 0.00 0.00 0.00 0.00
0.03 0.02 0.04 0.08 0.26 0.43 0.33 0.18 0.11 0.07 0.02 0.00 0.00 0.00 0.00 0.00 0.00 0.00 0.00 0.00 0.00 0.05 0.05 0.01 0.00 0.00 0.00 0.00 0.00 0.00 0.00 0.00 0.00 0.00 0.00 0.00 0.00 0.00 0.00 0.00 0.00 0.00 0.00 0.00 0.00 0.00 0.00 0.00 0.00 0.00 0.00 0.00 0.00 0.00
0.03 0.03 0.04 0.08 0.33 0.50 0.38 0.22 0.07 0.02 0.01 0.00 0.00 0.00 0.00 0.00 0.00 0.00 0.00 0.00 0.01 0.01 0.00 0.00 0.00 0.00 0.00 0.00 0.00 0.00 0.00 0.00 0.00 0.00 0.00 0.00 0.00 0.00 0.00 0.00 0.00 0.00 0.00 0.00 0.00 0.00 0.00 0.00 0.00 0.00 0.00 0.00 0.00 0.00
0.09 0.09 0.16 0.19 0.22 0.22 0.18 0.13 0.10 0.07 0.02 0.00 0.00 0.00 0.00 0.00 0.00 0.00 0.00 0.00 0.00 0.00 0.00 0.00 0.00 0.00 0.00 0.00 0.00 0.00 0.00 0.00 0.00 0.00 0.00 0.00 0.00 0.01 0.00 0.00 0.00 0.00 0.00 0.00 0.00 0.00 0.00 0.00 0.00 0.00 0.00 0.00 0.00 0.00
0.25 0.21 0.27 0.26 0.17 0.15 0.14 0.10 0.06 0.04 0.03 0.02 0.01 0.01 0.00 0.00 0.00 0.01 0.00 0.00 0.00 0.00 0.00 0.00 0.00 0.00 0.00 0.00 0.00 0.00 0.00 0.00 0.00 0.00 0.00 0.00 0.00 0.00 0.00 0.00 0.00 0.00 0.00 0.00 0.00 0.00 0.00 0.00 0.00 0.00 0.00 0.00 0.00 0.00
0.37 0.45 0.41 0.29 0.15 0.08 0.05 0.03 0.02 0.01 0.01 0.01 0.00 0.00 0.00 0.00 0.01 0.01 0.00 0.00 0.00 0.00 0.00 0.00 0.00 0.00 0.00 0.00 0.00 0.00 0.00 0.00 0.00 0.00 0.00 0.00 0.00 0.00 0.00 0.00 0.00 0.00 0.00 0.00 0.00 0.00 0.00 0.00 0.00 0.00 0.00 0.00 0.00 0.00
0.35 0.26 0.16 0.10 0.04 0.00 0.00 0.00 0.00 0.00 0.00 0.00 0.00 0.00 0.00 0.01 0.01 0.00 0.00 0.00 0.00 0.00 0.00 0.00 0.00 0.00 0.00 0.00 0.00 0.00 0.00 0.01 0.02 0.02 0.00 0.00 0.01 0.01 0.00 0.00 0.00 0.00 0.00 0.00 0.00 0.00 0.00 0.00 0.00 0.00 0.00 0.00 0.00 0.00
0.15 0.10 0.04 0.00 0.00 0.00 0.00 0.00 0.00 0.00 0.00 0.00 0.00 0.00 0.00 0.00 0.00 0.00 0.00 0.00 0.00 0.00 0.00 0.00 0.00 0.00 0.00 0.00 0.00 0.00 0.00 0.01 0.02 0.01 0.00 0.00 0.01 0.01 0.00 0.00 0.00 0.00 0.00 0.00 0.00 0.00 0.00 0.00 0.00 0.00 0.00 0.00 0.00 0.00
0.02 0.00 0.00 0.00 0.00 0.00 0.00 0.00 0.00 0.00 0.00 0.00 0.00 0.00 0.00 0.00 0.00 0.00 0.00 0.00 0.00 0.00 0.00 0.00 0.00 0.00 0.00 0.00 0.00 0.00 0.00 0.00 0.00 0.00 0.00 0.00 0.00 0.00 0.00 0.00 0.00 0.00 0.00 0.00 0.00 0.00 0.00 0.00 0.00 0.00 0.00 0.00 0.00 0.00
0.00 0.00 0.00 0.00 0.00 0.00 0.00 0.00 0.00 0.00 0.00 0.00 0.00 0.00 0.00 0.00 0.00 0.00 0.00 0.00 0.00 0.00 0.00 0.00 0.00 0.00 0.00 0.00 0.00 0.00 0.00 0.00 0.00 0.00 0.00 0.00 0.00 0.00 0.00 0.00 0.00 0.00 0.00 0.00 0.00 0.00 0.00 0.00 0.00 0.00 0.00 0.00 0.00 0.00
0.00 0.00 0.00 0.00 0.00 0.00 0.00 0.00 0.00 0.00 0.00 0.00 0.00 0.00 0.00 0.00 0.00 0.00 0.00 0.00 0.00 0.00 0.00 0.00 0.00 0.00 0.00 0.00 0.00 0.00 0.00 0.00 0.00 0.00 0.00 0.00 0.00 0.00 0.00 0.00 0.00 0.00 0.00 0.00 0.00 0.00 0.00 0.00 0.00 0.00 0.00 0.00 0.00 0.00
0.00 0.00 0.00 0.00 0.00 0.00 0.00 0.00 0.00 0.00 0.00 0.00 0.00 0.00 0.00 0.00 0.00 0.00 0.00 0.00 0.00 0.00 0.00 0.00 0.00 0.00 0.00 0.00 0.00 0.00 0.00 0.00 0.00 0.00 0.00 0.00 0.00 0.00 0.00 0.00 0.00 0.00 0.00 0.00 0.00 0.00 0.00 0.00 0.00 0.00 0.00 0.00 0.00 0.00
0.00 0.00 0.00 0.00 0.00 0.00 0.00 0.00 0.00 0.00 0.00 0.00 0.00 0.00 0.00 0.00 0.00 0.00 0.00 0.00 0.00 0.00 0.00 0.00 0.00 0.00 0.00 0.00 0.00 0.00 0.00 0.00 0.00 0.00 0.00 0.00 0.00 0.00 0.00 0.00 0.00 0.00 0.00 0.00 0.00 0.00 0.00 0.00 0.00 0.00 0.00 0.00 0.00 0.00
0.00 0.00 0.00 0.00 0.00 0.00 0.00 0.00 0.00 0.00 0.00 0.00 0.00 0.00 0.00 0.00 0.00 0.00 0.00 0.00 0.00 0.00 0.00 0.00 0.00 0.00 0.00 0.00 0.00 0.00 0.00 0.00 0.00 0.00 0.00 0.00 0.00 0.00 0.00 0.00 0.00 0.00 0.00 0.00 0.00 0.00 0.00 0.00 0.00 0.00 0.00 0.00 0.00 0.00
MSLP
1024.93 1024.88 1024.83 1024.79 1024.79 1024.79 1024.64 1024.59 1024.65 1024.68 1024.68 1024.64 1024.59 1024.53 1024.33 1024.06 1023.75 1023.73 1024.27 1024.07 1024.17 1024.26 1023.28 1022.63 1022.43 1022.56 1023.12 1023.54 1024.33 1025.26 1026.01 1026.50 1027.30 1027.92 1028.41 1028.39 1028.27 1027.58 1027.30 1026.81 1026.77 1027.18 1028.00 1028.54 1028.83 1028.34 1024.60 1021.26 1021.62 1021.62 1020.44 1020.67 1020.95 1021.29
1024.95 1024.89 1024.83 1024.81 1024.77 1024.72 1024.67 1024.58 1024.43 1024.38 1024.54 1024.59 1024.57 1024.58 1024.50 1024.42 1024.20 1024.04 1024.59 1024.36 1024.36 1024.61 1023.69 1022.88 1022.22 1021.91 1021.95 1022.21 1023.03 1024.34 1024.74 1025.13 1025.83 1026.94 1027.89 1028.38 1028.41 1028.01 1027.60 1027.09 1026.05 1026.08 1024.80 1025.16 1025.21 1022.58 1020.84 1020.38 1019.71 1019.60 1020.07 1020.51 1020.90 1021.31
1024.95 1024.90 1024.81 1024.77 1024.71 1024.67 1024.65 1024.56 1024.45 1024.28 1024.17 1024.34 1024.46 1024.50 1024.48 1024.51 1024.56 1024.63 1025.06 1025.03 1024.80 1025.02 1023.98 1023.15 1022.08 1021.75 1021.72 1021.90 1022.10 1023.39 1024.42 1024.31 1025.08 1025.11 1026.53 1027.61 1028.14 1027.66 1027.66 1026.53 1025.49 1024.23 1023.46 1023.79 1023.40 1019.91 1019.86 1019.97 1019.41 1019.61 1019.95 1020.42 1020.73 1021.03
1024.83 1024.87 1024.83 1024.78 1024.73 1024.63 1024.52 1024.42 1024.36 1024.33 1024.23 1024.01 1024.11 1024.28 1024.41 1024.50 1024.63 1024.83 1025.33 1025.34 1025.49 1025.63 1025.33 1023.13 1022.01 1021.87 1021.42 1021.64 1021.90 1022.19 1022.89 1023.81 1024.46 1025.26 1026.10 1026.82 1027.11 1026.65 1026.58 1025.69 1025.05 1023.31 1022.60 1022.00 1021.14 1019.77 1019.33 1019.27 1019.20 1019.52 1019.82 1020.22 1020.55 1020.80
1024.65 1024.66 1024.64 1024.63 1024.53 1024.49 1024.35 1024.24 1024.18 1024.15 1024.13 1024.09 1023.94 1023.91 1024.12 1024.35 1024.52 1024.82 1025.05 1025.10 1025.34 1025.87 1025.71 1024.21 1022.84 1022.01 1021.75 1021.84 1022.05 1022.41 1022.92 1023.83 1024.81 1025.80 1026.32 1026.44 1026.07 1026.24 1025.68 1025.62 1023.36 1021.06 1020.33 1020.44 1019.11 1018.24 1018.54 1018.81 1018.98 1019.32 1019.77 1020.12 1020.46 1020.77
1024.17 1024.34 1024.31 1024.38 1024.33 1024.28 1024.17 1024.12 1024.08 1024.02 1023.92 1023.90 1023.87 1023.79 1023.87 1024.15 1024.52 1024.86 1025.15 1025.19 1025.14 1025.33 1025.82 1025.17 1023.39 1022.59 1022.07 1022.07 1022.38 1022.81 1023.27 1024.06 1024.64 1025.34 1025.83 1025.39 1025.03 1025.14 1025.17 1024.12 1019.16 1018.49 1018.06 1017.68 1017.49 1017.85 1018.29 1018.47 1018.89 1019.21 1019.77 1020.12 1020.42 1020.64
1023.73 1023.85 1024.00 1024.02 1024.06 1024.07 1024.01 1023.93 1023.90 1023.87 1023.78 1023.67 1023.63 1023.59 1023.51 1023.91 1024.50 1024.91 1024.97 1025.00 1024.80 1025.00 1025.73 1025.51 1023.99 1023.30 1022.81 1022.91 1023.34 1023.75 1024.04 1024.53 1024.88 1025.25 1025.32 1025.32 1025.06 1024.83 1024.30 1022.52 1017.97 1017.58 1017.25 1017.25 1017.45 1018.05 1018.34 1018.47 1018.76 1019.22 1019.63 1020.03 1020.31 1020.45
1023.24 1023.35 1023.63 1023.76 1023.87 1023.83 1023.75 1023.65 1023.59 1023.54 1023.49 1023.55 1023.41 1023.39 1023.34 1023.59 1024.27 1024.54 1024.25 1024.45 1024.77 1025.14 1025.68 1025.96 1024.78 1024.27 1023.61 1023.93 1024.35 1024.37 1024.78 1024.89 1024.91 1024.86 1025.00 1024.92 1024.61 1024.00 1022.55 1017.69 1017.27 1016.93 1016.94 1017.17 1017.03 1017.23 1017.46 1017.91 1018.64 1019.21 1019.55 1019.98 1020.26 1020.21
1022.74 1022.95 1023.17 1023.34 1023.34 1023.47 1023.45 1023.43 1023.43 1023.29 1023.28 1023.34 1023.36 1023.12 1023.46 1023.83 1024.17 1024.03 1023.69 1024.04 1024.54 1025.21 1025.12 1025.24 1025.34 1024.96 1024.46 1024.95 1025.12 1025.24 1025.31 1025.67 1025.24 1024.78 1024.50 1024.44 1023.23 1021.40 1017.54 1016.56 1016.25 1016.11 1016.34 1016.23 1016.46 1016.86 1017.52 1018.05 1018.63 1019.16 1019.60 1019.88 1019.93 1019.73
1022.13 1022.35 1022.63 1022.82 1022.89 1023.00 1023.12 1023.18 1023.22 1023.32 1023.22 1023.24 1023.49 1023.65 1023.88 1023.99 1023.64 1023.85 1024.05 1024.35 1024.46 1024.33 1024.21 1023.83 1024.19 1024.39 1024.48 1025.03 1025.43 1025.64 1025.35 1025.26 1024.93 1023.87 1023.70 1022.93 1019.97 1016.62 1016.21 1015.40 1014.68 1014.88 1015.28 1015.90 1016.56 1017.05 1017.71 1018.31 1018.68 1019.01 1019.27 1019.40 1019.42 1019.32
1021.52 1021.80 1022.07 1022.27 1022.39 1022.54 1022.66 1022.78 1023.02 1023.29 1023.37 1023.57 1023.91 1024.14 1024.39 1024.04 1024.22 1024.20 1024.06 1024.07 1023.86 1023.68 1023.26 1022.62 1022.87 1023.27 1023.67 1024.12 1024.56 1024.69 1024.35 1024.38 1024.12 1023.12 1023.16 1021.28 1018.31 1015.51 1014.63 1013.73 1013.56 1013.96 1014.35 1014.74 1015.10 1015.65 1016.44 1017.07 1017.86 1018.47 1018.84 1018.96 1018.99 1018.97
1020.80 1021.10 1021.37 1021.62 1021.81 1022.02 1022.28 1022.37 1022.68 1023.37 1023.57 1023.72 1023.98 1024.28 1024.50 1024.50 1024.62 1024.67 1023.61 1023.34 1023.12 1022.53 1021.96 1022.07 1022.32 1022.42 1022.67 1022.93 1023.46 1023.46 1023.24 1023.52 1023.05 1022.64 1022.54 1020.11 1015.37 1014.34 1013.59 1013.24 1013.12 1013.43 1013.79 1014.23 1014.70 1015.56 1016.32 1016.95 1017.48 1018.01 1018.39 1018.57 1018.62 1018.64
1020.06 1020.39 1020.60 1020.83 1021.11 1021.42 1021.78 1021.90 1022.25 1022.87 1023.52 1024.05 1024.38 1024.65 1024.78 1024.74 1024.44 1023.39 1022.58 1022.23 1021.72 1021.46 1021.58 1021.76 1022.06 1022.14 1022.41 1022.72 1022.74 1022.46 1022.21 1022.30 1022.16 1022.21 1020.45 1016.30 1014.26 1013.71 1013.12 1012.88 1012.68 1012.95 1013.55 1014.14 1014.81 1015.37 1016.10 1016.80 1017.38 1017.72 1017.98 1018.10 1018.21 1018.32
1019.21 1019.56 1019.71 1020.07 1020.42 1020.73 1021.07 1021.29 1021.73 1022.61 1023.06 1024.04 1024.51 1024.57 1024.26 1023.11 1022.03 1020.88 1020.67 1020.66 1020.63 1020.81 1021.10 1021.51 1021.99 1022.12 1022.13 1022.14 1021.60 1021.43 1021.44 1021.73 1021.45 1020.83 1017.65 1014.61 1013.71 1013.04 1012.71 1012.65 1012.79 1013.05 1013.62 1014.23 1014.85 1015.47 1016.12 1016.72 1017.17 1017.44 1017.62 1017.68 1017.85 1018.01
1018.34 1018.62 1018.93 1019.24 1019.59 1019.95 1020.33 1020.60 1021.04 1021.95 1022.51 1023.11 1023.58 1022.76 1021.16 1020.16 1019.77 1019.78 1020.04 1020.35 1020.31 1020.35 1021.00 1021.73 1022.01 1021.96 1021.95 1021.78 1021.22 1021.07 1021.11 1020.37 1019.28 1017.13 1014.96 1013.71 1012.67 1012.43 1012.39 1012.32 1012.42 1013.14 1013.88 1014.55 1014.91 1015.49 1016.11 1016.59 1016.93 1017.19 1017.29 1017.24 1017.38 1017.60
1017.41 1017.80 1017.98 1018.33 1018.63 1019.00 1019.50 1019.86 1020.51 1021.19 1021.28 1021.80 1021.20 1019.98 1019.42 1019.56 1019.18 1019.70 1019.86 1020.05 1019.94 1020.41 1020.97 1021.38 1021.60 1021.47 1021.01 1020.63 1020.18 1019.62 1019.18 1017.56 1015.46 1015.08 1014.30 1013.31 1012.91 1013.07 1011.93 1012.43 1012.24 1012.91 1013.68 1014.40 1014.77 1015.20 1015.79 1016.26 1016.58 1016.81 1016.87 1016.95 1016.98 1017.14
1016.39 1016.54 1016.76 1017.11 1017.53 1017.93 1018.34 1019.32 1019.80 1019.47 1019.75 1019.53 1018.26 1018.02 1018.06 1018.15 1018.22 1018.61 1018.84 1019.21 1019.43 1020.00 1020.67 1020.85 1020.81 1019.81 1019.56 1018.95 1018.23 1017.67 1016.80 1015.81 1015.46 1014.62 1013.57 1012.59 1012.89 1012.31 1012.32 1012.44 1012.31 1012.58 1013.39 1014.10 1014.48 1014.88 1015.31 1015.79 1016.18 1016.55 1016.70 1016.58 1016.59 1016.79
1015.11 1015.38 1015.72 1016.10 1016.48 1016.95 1017.31 1017.67 1017.96 1018.00 1017.93 1017.59 1017.53 1016.45 1016.91 1016.46 1017.18 1017.58 1017.66 1017.99 1018.62 1018.88 1018.94 1018.67 1018.51 1018.40 1017.67 1016.45 1015.35 1015.14 1014.71 1014.01 1013.56 1013.00 1012.75 1012.35 1011.94 1012.27 1012.25 1012.07 1012.07 1012.36 1012.78 1013.40 1013.90 1014.38 1014.94 1015.46 1015.89 1016.10 1016.15 1016.12 1016.26 1016.40
1013.82 1014.30 1014.75 1015.00 1015.44 1015.78 1015.86 1015.98 1016.51 1016.48 1016.21 1016.25 1015.86 1015.87 1015.82 1015.60 1015.41 1015.50 1016.06 1016.28 1016.27 1016.41 1016.77 1017.10 1016.69 1015.47 1014.32 1013.71 1013.37 1012.69 1012.46 1012.42 1012.47 1012.15 1011.59 1010.71 1010.90 1011.04 1011.13 1011.18 1011.52 1012.22 1012.55 1012.91 1013.49 1013.93 1014.32 1014.68 1015.06 1015.43 1015.60 1015.67 1015.85 1016.03
1012.40 1012.91 1013.48 1013.94 1014.43 1014.19 1014.70 1014.79 1015.05 1014.99 1014.60 1014.27 1014.91 1014.95 1015.00 1014.38 1014.18 1014.40 1014.61 1014.95 1015.22 1015.49 1015.33 1014.35 1012.97 1011.99 1011.54 1010.84 1010.72 1010.58 1010.72 1011.00 1011.36 1011.39 1010.74 1010.19 1010.35 1010.53 1010.30 1010.66 1011.00 1011.56 1012.14 1012.70 1013.20 1013.60 1014.03 1014.53 1014.69 1014.80 1014.97 1015.12 1015.36 1015.54
1011.29 1011.37 1012.12 1012.70 1012.71 1012.83 1013.36 1013.55 1013.87 1013.63 1013.55 1013.68 1012.99 1013.79 1013.85 1013.59 1013.56 1013.48 1013.49 1013.66 1014.15 1013.62 1012.63 1011.06 1010.29 1009.70 1009.33 1008.97 1008.81 1009.20 1009.28 1009.90 1009.99 1009.95 1009.63 1009.63 1009.62 1009.79 1009.63 1010.24 1010.69 1010.99 1011.65 1012.24 1012.69 1013.08 1013.49 1013.75 1013.92 1014.18 1014.48 1014.55 1014.78 1015.03
1009.36 1010.16 1010.70 1011.19 1011.33 1011.66 1012.08 1012.58 1012.00 1012.27 1012.86 1012.71 1013.11 1012.75 1012.63 1012.52 1012.40 1012.36 1012.46 1012.56 1011.63 1010.05 1009.22 1008.83 1008.21 1007.82 1008.04 1007.86 1007.48 1007.90 1008.01 1008.52 1008.69 1008.90 1008.85 1008.91 1009.20 1009.44 1009.55 1010.08 1010.60 1010.72 1010.77 1011.14 1011.63 1012.14 1012.53 1012.89 1013.26 1013.60 1013.94 1014.09 1014.29 1014.59
1008.65 1009.03 1009.96 1010.29 1010.84 1011.22 1011.25 1011.43 1011.56 1011.42 1011.60 1011.86 1012.15 1012.25 1011.91 1011.61 1011.38 1011.41 1011.27 1010.09 1008.29 1007.50 1007.33 1007.34 1006.93 1006.95 1007.03 1006.56 1006.81 1006.78 1007.13 1007.39 1007.55 1007.51 1007.61 1007.84 1008.01 1008.01 1008.82 1009.24 1009.21 1009.69 1010.17 1010.53 1010.78 1011.35 1011.83 1012.17 1012.60 1013.06 1013.35 1013.64 1013.92 1014.22
1007.78 1008.70 1009.24 1009.48 1009.54 1010.04 1010.58 1010.67 1010.68 1010.80 1010.76 1010.84 1011.01 1011.08 1010.95 1010.85 1011.04 1010.94 1009.71 1007.50 1006.49 1006.82 1006.67 1006.28 1006.36 1006.24 1006.22 1006.25 1006.21 1006.04 1006.07 1006.38 1006.31 1006.21 1006.39 1006.87 1007.38 1007.60 1007.69 1007.81 1008.23 1008.56 1008.85 1009.17 1010.09 1010.76 1011.26 1011.67 1012.03 1012.51 1012.82 1013.11 1013.43 1013.78
1007.72 1008.03 1008.28 1008.21 1008.35 1008.91 1009.31 1009.43 1009.30 1009.65 1009.53 1009.72 1009.99 1010.07 1010.31 1010.46 1010.39 1009.94 1008.29 1006.79 1006.62 1006.49 1006.16 1005.95 1006.10 1006.04 1005.98 1005.58 1005.55 1005.37 1005.35 1005.59 1005.61 1005.61 1005.64 1006.02 1006.29 1006.68 1007.08 1007.31 1007.50 1007.78 1008.52 1008.96 1009.70 1010.10 1010.71 1011.18 1011.60 1012.00 1012.23 1012.60 1012.95 1013.27
1005.91 1005.93 1006.27 1006.70 1006.97 1007.32 1007.59 1007.96 1008.17 1008.14 1008.56 1009.09 1009.17 1009.24 1009.57 1009.83 1009.80 1008.68 1007.39 1006.72 1006.64 1006.72 1006.59 1006.59 1006.52 1006.28 1006.03 1005.75 1005.50 1005.17 1004.90 1004.76 1005.00 1005.17 1005.13 1005.33 1005.45 1005.64 1006.20 1006.74 1007.11 1007.71 1007.87 1007.90 1008.62 1009.39 1010.06 1010.59 1011.09 1011.49 1011.80 1012.10 1012.44 1012.85
1004.74 1005.02 1005.28 1005.72 1005.76 1005.89 1006.50 1006.77 1006.90 1007.29 1007.80 1007.81 1008.23 1008.93 1009.36 1009.41 1008.67 1007.33 1006.82 1006.89 1007.12 1007.06 1006.83 1006.68 1006.55 1006.34 1005.97 1005.40 1005.02 1004.51 1004.26 1004.35 1004.62 1004.57 1004.53 1004.67 1004.84 1004.93 1005.20 1005.73 1006.08 1006.37 1006.84 1007.43 1008.15 1008.60 1009.35 1010.01 1010.54 1010.97 1011.35 1011.69 1012.11 1012.54
1003.46 1003.83 1004.38 1005.08 1005.23 1005.11 1005.46 1005.90 1006.10 1006.26 1006.27 1006.68 1007.52 1008.06 1007.93 1007.70 1007.09 1006.78 1006.88 1007.14 1007.31 1007.20 1006.85 1006.48 1006.21 1006.07 1005.86 1005.54 1005.17 1004.71 1004.52 1004.48 1004.57 1004.76 1004.91 1005.07 1005.08 1005.04 1005.09 1005.40 1005.61 1005.99 1006.53 1007.16 1007.75 1008.34 1008.95 1009.46 1009.99 1010.50 1010.97 1011.46 1011.96 1012.35
1003.25 1003.35 1003.77 1004.48 1004.65 1004.76 1004.87 1005.11 1005.21 1005.17 1005.28 1005.86 1006.34 1006.68 1006.74 1006.67 1006.89 1007.20 1007.38 1007.45 1007.24 1007.06 1006.80 1006.57 1006.26 1006.05 1005.97 1005.84 1005.49 1005.17 1005.07 1005.23 1005.15 1005.15 1005.30 1005.52 1005.63 1005.80 1005.63 1005.60 1005.91 1006.33 1006.68 1007.18 1007.72 1008.25 1008.74 1009.21 1009.69 1010.20 1010.71 1011.23 1011.69 1012.18
1002.89 1002.97 1003.42 1003.88 1004.15 1004.48 1004.76 1004.92 1004.99 1005.07 1005.24 1005.37 1005.55 1006.11 1006.52 1006.95 1007.26 1007.34 1007.50 1007.38 1007.15 1006.95 1006.72 1006.52 1006.41 1006.32 1006.29 1006.05 1006.02 1005.82 1005.64 1005.48 1005.31 1005.33 1005.31 1005.47 1005.52 1005.74 1005.85 1006.10 1006.38 1006.68 1007.00 1007.40 1007.89 1008.35 1008.70 1009.20 1009.64 1010.30 1010.80 1011.37 1011.82 1012.26
1002.55 1002.97 1003.58 1004.07 1004.56 1004.93 1005.01 1005.10 1005.23 1005.33 1005.46 1005.70 1005.94 1006.34 1006.70 1007.00 1007.23 1007.26 1007.42 1007.36 1006.97 1006.56 1006.54 1006.50 1006.47 1006.42 1006.31 1006.21 1006.17 1006.11 1006.16 1006.14 1005.90 1005.67 1005.53 1005.55 1005.69 1005.99 1006.31 1006.57 1006.85 1007.13 1007.42 1007.73 1008.13 1008.54 1008.91 1009.44 1009.90 1010.40 1010.81 1011.23 1011.64 1011.92
1002.76 1003.30 1003.83 1004.54 1005.01 1005.18 1005.22 1005.42 1005.66 1005.84 1005.95 1006.11 1006.28 1006.36 1006.66 1006.85 1007.18 1007.37 1007.48 1007.29 1006.90 1006.85 1006.85 1006.86 1006.81 1006.79 1006.65 1006.57 1006.46 1006.41 1006.37 1006.44 1006.35 1006.16 1006.02 1006.03 1006.19 1006.43 1006.71 1006.94 1007.17 1007.42 1007.77 1008.11 1008.48 1008.85 1009.19 1009.61 1009.98 1010.32 1010.71 1011.08 1011.36 1011.62
1003.62 1003.93 1004.20 1004.55 1005.05 1005.23 1005.43 1005.70 1005.99 1006.22 1006.26 1006.28 1006.25 1006.24 1006.38 1006.75 1007.15 1007.48 1007.46 1007.47 1007.47 1007.33 1007.25 1007.20 1007.13 1006.97 1006.91 1006.83 1006.74 1006.81 1006.78 1006.72 1006.50 1006.39 1006.31 1006.33 1006.41 1006.61 1006.86 1007.07 1007.28 1007.55 1007.91 1008.29 1008.68 1009.05 1009.42 1009.75 1010.07 1010.34 1010.63 1010.91 1011.16 1011.42
Thickness
5559 5562 5563 5564 5565 5566 5568 5568 5568 5570 5571 5571 5572 5573 5575 5578 5580 5583 5578 5580 5578 5574 5582 5591 5591 5583 5574 5565 5561 5554 5548 5541 5524 5522 5509 5513 5497 5521 5516 5523 5513 5500 5475 5467 5459 5435 5465 5524 5510 5500 5505 5494 5490 5478
5549 5551 5552 5554 5555 5557 5558 5558 5559 5560 5560 5560 5561 5560 5561 5563 5565 5567 5563 5565 5564 5560 5571 5573 5578 5579 5577 5571 5556 5542 5550 5535 5528 5515 5499 5484 5495 5476 5496 5499 5508 5502 5520 5488 5487 5503 5519 5513 5519 5510 5496 5486 5476 5465
5540 5541 5542 5543 5545 5546 5546 5547 5548 5549 5550 5550 5550 5550 5549 5549 5550 5550 5547 5547 5548 5544 5554 5558 5567 5568 5565 5561 5557 5540 5528 5532 5523 5521 5499 5485 5482 5478 5479 5485 5497 5506 5508 5489 5501 5532 5516 5504 5504 5496 5484 5474 5465 5455
5531 5531 5532 5533 5534 5536 5538 5539 5539 5539 5540 5541 5541 5540 5538 5537 5537 5536 5534 5533 5530 5525 5528 5551 5555 5555 5555 5550 5547 5542 5534 5523 5513 5506 5500 5484 5481 5486 5472 5487 5481 5505 5501 5499 5491 5508 5510 5500 5491 5485 5476 5466 5455 5443
5523 5523 5523 5524 5526 5528 5529 5531 5531 5531 5531 5531 5532 5532 5530 5529 5528 5527 5526 5524 5521 5516 5513 5526 5536 5542 5541 5539 5535 5529 5521 5510 5498 5487 5474 5470 5477 5473 5471 5459 5467 5504 5500 5495 5506 5516 5504 5494 5488 5479 5467 5456 5444 5433
5515 5515 5516 5516 5518 5519 5521 5523 5523 5523 5523 5522 5522 5522 5521 5519 5517 5515 5512 5513 5511 5506 5498 5495 5519 5528 5530 5526 5520 5514 5506 5494 5485 5477 5467 5469 5474 5469 5437 5448 5512 5518 5516 5513 5508 5496 5489 5485 5475 5466 5454 5445 5434 5423
5506 5507 5507 5507 5508 5509 5510 5512 5513 5512 5513 5513 5513 5512 5512 5510 5506 5502 5502 5500 5499 5495 5487 5481 5491 5510 5511 5505 5497 5490 5484 5475 5467 5461 5457 5457 5457 5452 5422 5444 5524 5506 5502 5499 5492 5484 5480 5472 5466 5452 5444 5435 5425 5415
5496 5498 5497 5497 5497 5499 5500 5501 5501 5501 5501 5501 5502 5502 5501 5499 5495 5493 5492 5488 5485 5480 5474 5464 5475 5478 5487 5473 5474 5468 5461 5457 5454 5451 5446 5445 5442 5437 5430 5507 5505 5497 5489 5484 5480 5476 5475 5467 5450 5441 5434 5423 5414 5406
5486 5486 5487 5487 5488 5487 5488 5488 5488 5489 5489 5489 5489 5489 5487 5484 5481 5482 5479 5477 5474 5466 5460 5460 5465 5446 5456 5449 5444 5440 5433 5425 5428 5432 5437 5429 5432 5445 5493 5502 5497 5488 5481 5482 5480 5470 5458 5451 5440 5431 5421 5414 5407 5401
5475 5476 5476 5476 5476 5476 5475 5474 5473 5473 5475 5475 5473 5471 5466 5467 5468 5466 5462 5460 5458 5456 5455 5460 5451 5452 5441 5418 5408 5412 5401 5399 5421 5428 5422 5428 5454 5491 5488 5489 5489 5485 5478 5469 5463 5456 5443 5436 5427 5421 5413 5408 5401 5396
5463 5464 5464 5463 5463 5463 5462 5459 5456 5456 5456 5454 5452 5450 5448 5450 5448 5448 5450 5449 5445 5445 5444 5456 5448 5446 5425 5425 5410 5397 5405 5401 5401 5408 5407 5423 5449 5478 5486 5487 5485 5482 5471 5469 5467 5458 5447 5438 5426 5415 5408 5402 5396 5390
5454 5454 5453 5451 5450 5448 5446 5443 5439 5437 5434 5432 5434 5430 5430 5431 5427 5432 5442 5440 5436 5442 5436 5433 5425 5424 5416 5408 5400 5391 5398 5388 5394 5386 5400 5415 5469 5474 5475 5471 5473 5468 5465 5461 5455 5445 5435 5427 5418 5409 5401 5395 5389 5382
5444 5442 5441 5440 5438 5435 5431 5428 5422 5419 5414 5409 5409 5410 5413 5414 5414 5432 5434 5433 5426 5424 5413 5412 5407 5404 5396 5390 5387 5388 5394 5392 5380 5388 5406 5447 5457 5465 5461 5464 5466 5462 5456 5449 5441 5434 5426 5418 5409 5402 5396 5390 5384 5377
5434 5432 5432 5428 5425 5422 5418 5414 5405 5399 5398 5390 5388 5398 5402 5406 5424 5431 5423 5416 5415 5407 5400 5397 5391 5387 5383 5382 5387 5396 5389 5379 5374 5388 5417 5444 5451 5454 5454 5455 5454 5452 5443 5436 5430 5422 5415 5407 5400 5395 5390 5384 5377 5370
5422 5420 5419 5417 5414 5409 5405 5400 5391 5383 5382 5376 5377 5393 5411 5420 5417 5414 5409 5406 5399 5394 5390 5380 5378 5377 5374 5375 5378 5380 5374 5373 5381 5406 5429 5442 5449 5448 5446 5445 5443 5436 5428 5423 5417 5411 5404 5398 5392 5386 5381 5377 5371 5364
5411 5410 5411 5407 5403 5399 5393 5388 5380 5372 5367 5363 5383 5402 5409 5403 5413 5394 5393 5390 5384 5379 5370 5367 5362 5364 5368 5372 5376 5371 5368 5383 5408 5410 5421 5431 5433 5433 5444 5436 5433 5426 5419 5412 5407 5403 5396 5390 5384 5378 5374 5369 5364 5359
5403 5406 5404 5399 5395 5391 5385 5374 5368 5368 5358 5364 5395 5400 5397 5395 5400 5388 5385 5382 5375 5369 5359 5362 5363 5370 5364 5358 5377 5379 5378 5395 5402 5407 5414 5423 5418 5430 5428 5420 5421 5418 5411 5403 5398 5395 5390 5384 5377 5371 5365 5362 5358 5353
5402 5399 5396 5391 5387 5381 5376 5369 5364 5360 5362 5375 5381 5400 5390 5400 5394 5379 5379 5374 5367 5361 5358 5365 5359 5362 5350 5350 5378 5383 5381 5393 5398 5399 5403 5413 5415 5416 5412 5411 5411 5409 5406 5398 5394 5389 5383 5376 5369 5362 5358 5357 5352 5348
5396 5391 5387 5384 5377 5372 5369 5367 5361 5358 5368 5372 5377 5378 5381 5381 5387 5384 5376 5374 5374 5368 5364 5358 5358 5363 5390 5397 5395 5405 5404 5399 5395 5392 5399 5415 5415 5414 5409 5408 5405 5399 5394 5391 5386 5384 5379 5373 5366 5359 5354 5352 5346 5342
5388 5386 5380 5374 5368 5367 5367 5358 5358 5365 5378 5382 5367 5368 5368 5380 5380 5378 5376 5373 5368 5362 5359 5364 5378 5391 5387 5398 5393 5397 5394 5390 5386 5386 5397 5405 5405 5401 5400 5401 5401 5397 5388 5381 5379 5378 5370 5364 5360 5356 5352 5348 5343 5338
5378 5381 5373 5368 5366 5363 5356 5354 5351 5362 5366 5364 5375 5369 5365 5365 5372 5374 5372 5371 5360 5360 5367 5385 5391 5397 5400 5400 5401 5395 5394 5384 5384 5386 5393 5394 5398 5393 5396 5391 5390 5388 5383 5378 5374 5371 5369 5362 5357 5352 5346 5345 5340 5335
5380 5369 5367 5363 5359 5358 5354 5350 5362 5362 5359 5362 5358 5364 5366 5372 5368 5365 5363 5363 5369 5385 5391 5393 5397 5399 5393 5393 5398 5392 5391 5383 5379 5377 5381 5381 5373 5379 5382 5381 5377 5380 5381 5378 5374 5369 5365 5358 5351 5345 5340 5339 5336 5330
5364 5363 5351 5353 5350 5345 5354 5352 5357 5358 5361 5362 5354 5355 5363 5364 5363 5362 5363 5372 5393 5401 5399 5395 5396 5393 5391 5397 5392 5391 5383 5379 5376 5376 5376 5377 5375 5378 5376 5374 5379 5379 5375 5371 5370 5364 5359 5355 5349 5341 5338 5334 5329 5325
5355 5348 5350 5349 5352 5350 5343 5347 5353 5356 5358 5362 5365 5363 5364 5364 5357 5359 5373 5395 5406 5394 5389 5393 5390 5391 5389 5383 5381 5383 5382 5375 5375 5378 5375 5372 5369 5369 5370 5375 5374 5377 5377 5373 5365 5359 5353 5349 5345 5337 5333 5330 5326 5322
5349 5346 5347 5352 5350 5346 5349 5354 5360 5360 5364 5365 5362 5355 5356 5355 5360 5365 5376 5390 5387 5388 5388 5384 5381 5381 5379 5382 5377 5376 5374 5368 5369 5369 5366 5364 5364 5360 5361 5365 5369 5371 5366 5363 5356 5354 5348 5343 5338 5332 5330 5326 5322 5320
5362 5361 5359 5351 5353 5360 5359 5360 5363 5367 5362 5358 5361 5358 5355 5355 5355 5363 5370 5376 5374 5368 5362 5361 5364 5360 5360 5361 5362 5361 5362 5365 5365 5362 5363 5360 5362 5367 5363 5361 5362 5359 5360 5362 5357 5350 5344 5338 5333 5328 5326 5323 5320 5316
5357 5353 5355 5351 5358 5363 5361 5361 5361 5360 5359 5362 5359 5353 5346 5343 5346 5368 5366 5362 5356 5355 5359 5357 5355 5354 5358 5362 5362 5365 5367 5363 5359 5359 5361 5360 5361 5364 5366 5364 5363 5363 5360 5355 5350 5346 5339 5333 5328 5324 5321 5318 5314 5310
5357 5361 5363 5358 5362 5367 5365 5365 5366 5369 5368 5357 5357 5350 5344 5352 5362 5364 5359 5354 5347 5348 5351 5351 5353 5352 5352 5352 5354 5357 5356 5355 5353 5352 5351 5351 5353 5357 5359 5358 5357 5356 5352 5347 5343 5338 5332 5328 5324 5319 5316 5312 5307 5304
5357 5361 5365 5356 5361 5366 5365 5370 5368 5366 5361 5358 5358 5354 5355 5357 5351 5344 5343 5341 5342 5342 5341 5342 5344 5347 5346 5345 5345 5347 5347 5345 5347 5342 5342 5343 5344 5344 5346 5348 5346 5342 5340 5336 5332 5328 5324 5321 5317 5313 5310 5306 5302 5297
5358 5361 5361 5360 5354 5357 5358 5354 5357 5353 5351 5354 5354 5349 5345 5340 5334 5334 5334 5336 5336 5335 5335 5336 5335 5336 5334 5340 5338 5338 5339 5341 5343 5344 5342 5341 5341 5337 5335 5332 5331 5329 5327 5325 5322 5319 5318 5314 5310 5304 5300 5295 5292 5287
5356 5355 5348 5348 5352 5342 5342 5342 5344 5345 5345 5345 5342 5343 5341 5333 5333 5330 5326 5326 5331 5338 5338 5337 5337 5334 5336 5335 5334 5333 5331 5328 5329 5331 5331 5330 5327 5324 5323 5321 5320 5318 5316 5314 5312 5309 5307 5302 5299 5295 5292 5289 5285 5284
5356 5351 5347 5345 5342 5340 5338 5341 5340 5342 5341 5340 5337 5333 5331 5333 5335 5325 5320 5321 5330 5331 5331 5328 5327 5325 5324 5323 5322 5321 5320 5317 5317 5318 5319 5319 5318 5317 5314 5312 5310 5308 5305 5303 5300 5297 5295 5292 5289 5287 5283 5280 5278 5277
5343 5341 5340 5341 5336 5339 5340 5335 5337 5335 5333 5334 5333 5332 5330 5330 5331 5317 5314 5313 5315 5317 5317 5316 5315 5314 5312 5312 5311 5309 5308 5308 5310 5311 5312 5312 5311 5308 5305 5303 5301 5299 5296 5293 5289 5286 5283 5280 5278 5276 5274 5271 5270 5268